DateTimeUTC,F1_A11,F1_S11,BsB_S11,BsG_S11,BsR_S11,BbsB_S11,BbsG_S11,BbsR_S11,BaB_A11,BaG_A11,BaR_A11,Tu_S11,T_S11,Uu_S11,U_S11,P_S11,T1_A11
2021-11-18T02:00:00Z,00000200,21000000,,,,,,,0000.11,0000.22,0000.28,17.7,25.1,,00.0,0637.6,30.8
2021-11-18T02:01:00Z,00000200,21000000,,,,,,,-000.30,-000.31,-000.18,17.7,25.0,,00.0,0637.6,30.8
2021-11-18T02:02:00Z,00000200,21000000,,,,,,,0000.34,0000.04,0000.14,17.7,25.1,,00.0,0637.6,30.8
2021-11-18T02:03:00Z,00000200,61000000,,,,,,,-000.18,0000.27,-000.16,17.8,25.2,,00.0,0637.6,30.8
2021-11-18T02:04:00Z,00000200,41000000,-000.11,0000.16,0000.05,-000.43,-000.09,0000.08,0000.10,0000.05,-000.08,18.1,25.0,,00.0,0638.6,30.8
2021-11-18T02:05:00Z,00000200,01000000,-000.35,-000.17,-000.17,-000.03,-000.02,0000.09,0000.17,-000.24,0000.31,18.2,25.0,,00.0,0638.7,30.8
2021-11-18T02:06:00Z,00000200,01000000,-000.24,0000.26,0000.02,0000.19,-000.45,-000.05,-000.02,0000.30,-000.02,18.2,25.0,,00.0,0638.7,30.8
2021-11-18T02:07:00Z,00000200,01000000,0000.17,0000.10,-000.14,0000.52,-000.18,-000.09,0000.32,0000.07,0000.37,18.3,25.0,,00.0,0638.7,30.8
2021-11-18T02:08:00Z,00000200,01000000,-000.69,0000.05,-000.26,-000.21,-000.07,0000.22,-000.42,0000.13,0000.10,18.3,25.0,,00.0,0638.7,30.8
2021-11-18T02:09:00Z,00000200,01000000,0000.08,0000.26,-000.15,0000.16,-000.17,0000.07,0000.38,0000.04,-000.21,18.3,25.0,,00.0,0638.8,30.9
2021-11-18T02:10:00Z,00000200,01000000,-000.26,0000.29,0000.02,-000.03,-000.16,0000.07,-000.14,-000.40,-000.08,18.4,25.1,,00.0,0638.8,30.8
2021-11-18T02:11:00Z,00000200,01000000,0000.37,-000.29,-000.10,0000.15,-000.46,-000.19,0000.03,0000.41,-000.08,18.4,25.1,,00.0,0638.8,30.8
2021-11-18T02:12:00Z,00000200,01000000,-000.78,0000.12,0000.05,0000.02,0000.03,-000.09,0000.12,-000.05,0000.13,18.3,25.0,,00.0,0638.8,30.8
2021-11-18T02:13:00Z,00000200,01000000,-000.01,0000.31,-000.08,-000.16,-000.10,0000.19,-000.06,-000.33,-000.15,18.3,25.0,,00.0,0638.8,30.8
2021-11-18T02:14:00Z,00000200,01000000,0000.16,-000.02,-000.04,-000.11,-000.07,0000.13,0000.21,0000.53,0000.04,18.3,25.0,,00.0,0638.7,30.8
2021-11-18T02:15:00Z,00000200,01000000,-001.02,0000.21,0000.15,-000.04,-000.19,0000.14,0000.29,0000.07,0000.24,18.3,25.0,,00.0,0638.8,30.8
2021-11-18T02:16:00Z,00000200,01000000,-000.56,-000.18,-000.11,0000.26,-000.25,0000.19,-000.33,0000.01,0000.37,18.4,25.0,,00.0,0638.8,30.8
2021-11-18T02:17:00Z,00000200,01000000,0000.29,0000.35,-000.15,0000.06,-000.09,0000.16,0000.42,0000.08,-000.26,18.4,25.1,,00.0,0638.8,30.8
2021-11-18T02:18:00Z,00000200,01000000,-001.08,-000.19,-000.18,0000.22,-000.01,0000.10,0000.09,0000.25,0000.20,18.4,25.1,,00.0,0638.7,30.8
2021-11-18T02:19:00Z,00000200,01000000,-001.15,-000.34,-000.11,0000.66,-000.20,0000.08,0000.17,0000.18,0000.04,18.5,25.1,,00.0,0638.7,30.8
2021-11-18T02:20:00Z,00000200,01000000,-000.35,0000.04,0000.05,-000.07,-000.18,0000.02,0000.09,-000.16,-000.05,18.5,25.1,,00.0,0638.8,30.9
2021-11-18T02:21:00Z,00000200,01000000,0000.08,0000.32,0000.03,-000.09,-000.26,0000.08,0000.03,0000.43,0000.35,18.6,25.1,,00.0,0638.8,30.8
2021-11-18T02:22:00Z,00000200,01000000,0000.54,0000.28,-000.13,0000.31,-000.21,0000.16,0000.12,-000.12,0000.10,18.6,25.1,,00.0,0638.8,30.8
2021-11-18T02:23:00Z,00000200,01000000,-000.00,-000.06,-000.03,-000.11,0000.31,0000.02,-000.06,0000.03,-000.24,18.6,25.2,,00.0,0638.8,30.9
2021-11-18T02:24:00Z,00000200,01000000,-001.14,0000.12,0000.14,0000.28,-000.04,0000.06,-000.04,-000.05,0000.16,18.7,25.2,,00.0,0638.8,30.9
2021-11-18T02:25:00Z,00000200,01000000,-000.85,0000.04,-000.02,-000.26,0000.16,-000.38,-000.16,0000.04,-000.31,18.7,25.2,,00.0,0638.8,30.9
2021-11-18T02:26:00Z,00000200,01000000,-000.08,0000.37,0000.02,0000.26,-000.07,0000.08,0000.11,-000.13,0000.13,18.6,25.2,,00.0,0638.8,30.8
2021-11-18T02:27:00Z,00000200,01000000,-000.65,0000.24,0000.03,0000.11,-000.26,0000.20,0000.25,-000.19,-000.30,18.6,25.2,,00.0,0638.8,30.8
2021-11-18T02:28:00Z,00000200,01000000,-000.63,0000.13,0000.22,-000.27,-000.05,-000.17,0000.01,0000.25,0000.37,18.6,25.2,,00.0,0638.8,30.8
2021-11-18T02:29:00Z,00000200,01000000,0000.31,0000.27,0000.18,0000.09,0000.02,-000.25,0000.18,0000.43,0000.11,18.6,25.2,,00.0,0638.8,30.8
2021-11-18T02:30:00Z,00000200,01000000,-000.61,0000.17,0000.02,0000.04,-000.22,-000.06,0000.04,-000.18,-000.01,18.6,25.2,,00.0,0638.8,30.8
2021-11-18T02:31:00Z,00000200,01000000,-000.44,0000.08,-000.30,0000.20,-000.05,-000.01,0000.02,0000.12,0000.07,18.6,25.2,,00.0,0638.8,30.8
2021-11-18T02:32:00Z,00000200,01000000,-000.52,-000.09,-000.25,-000.53,0000.14,-000.11,-000.01,-000.09,0000.14,18.7,25.2,,00.0,0638.7,30.8
2021-11-18T02:33:00Z,00000200,01000000,-000.35,0000.10,0000.02,-000.16,-000.18,0000.10,-000.10,0000.11,-000.14,18.7,25.2,,00.0,0638.8,30.9
2021-11-18T02:34:00Z,00000200,01000000,-000.69,0000.14,-000.26,-000.32,0000.07,-000.22,0000.10,0000.27,0000.14,18.7,25.3,,00.0,0638.8,30.9
2021-11-18T02:35:00Z,00000200,01000000,-000.48,-000.20,0000.09,0000.20,0000.37,-000.09,0000.05,-000.53,0000.13,18.8,25.3,,00.0,0638.8,30.9
2021-11-18T02:36:00Z,00000200,01000000,-000.46,-000.01,-000.20,0000.51,0000.02,-000.15,0000.27,0000.36,-000.12,18.8,25.3,,00.0,0638.8,30.9
2021-11-18T02:37:00Z,00000200,01000000,-000.57,-000.09,0000.06,-000.70,0000.36,-000.09,-000.29,-000.11,0000.05,18.8,25.3,,00.0,0638.8,30.8
2021-11-18T02:38:00Z,00000200,01000000,-000.38,0000.09,-000.05,0000.00,0000.18,0000.22,0000.35,-000.05,-000.12,18.7,25.3,,00.0,0638.8,30.8
2021-11-18T02:39:00Z,00000200,01000000,-000.76,-000.16,-000.18,0000.12,-000.15,-000.02,-000.36,0000.08,0000.13,18.6,25.2,,00.0,0638.8,30.8
2021-11-18T02:40:00Z,00000200,01000000,0000.05,-000.00,0000.30,0000.29,-000.03,0000.09,0000.06,0000.08,-000.23,18.5,25.2,,00.0,0638.8,30.8
2021-11-18T02:41:00Z,00000200,01000000,-000.67,0000.16,0000.10,0000.12,0000.08,0000.29,0000.12,0000.07,0000.44,18.4,25.1,,00.0,0638.8,30.7
2021-11-18T02:42:00Z,00000200,01000000,-000.23,0000.11,-000.05,0000.06,0000.08,-000.02,0000.72,0000.51,0000.09,18.3,25.1,,00.0,0638.8,30.7
2021-11-18T02:43:00Z,00000200,01000000,-000.84,0000.04,0000.30,0000.16,-000.37,-000.00,-000.32,-000.27,-000.07,18.3,25.0,,00.0,0638.8,30.8
2021-11-18T02:44:00Z,00000200,01000000,-000.30,-000.13,-000.05,-000.10,0000.03,0000.01,-000.07,0000.10,-000.22,18.3,25.0,,00.0,0638.7,30.8
2021-11-18T02:45:00Z,00000200,01000000,-000.82,0000.12,0000.08,-000.13,-000.26,-000.05,0000.24,0000.17,0000.51,18.3,25.0,,00.0,0638.7,30.8
2021-11-18T02:46:00Z,00000200,01000000,0000.50,0000.29,0000.07,-000.06,-000.07,0000.06,-000.10,0000.11,-000.18,18.3,25.1,,00.0,0638.7,30.8
2021-11-18T02:47:00Z,00000200,01000000,-000.33,0000.11,-000.15,0000.01,-000.18,0000.16,0000.00,0000.04,0000.15,18.4,25.0,,00.0,0638.7,30.8
2021-11-18T02:48:00Z,00000200,01000000,-000.26,0000.10,0000.24,0000.44,-000.10,0000.45,0000.23,-000.22,-000.07,18.4,25.1,,00.0,0638.7,30.8
2021-11-18T02:49:00Z,00000200,01000000,-000.07,0000.24,-000.20,0000.40,-000.31,0000.13,0000.00,0000.50,-000.10,18.5,25.1,,00.0,0638.7,30.8
2021-11-18T02:50:00Z,00000200,01000000,-000.87,-000.22,0000.08,0000.01,-000.20,0000.06,0000.15,-000.43,0000.16,18.5,25.1,,00.0,0638.7,30.8
2021-11-18T02:51:00Z,00000200,01000000,0000.20,0000.17,-000.19,0000.23,-000.01,0000.21,-000.16,0000.30,0000.06,18.5,25.1,,00.0,0638.7,30.8
2021-11-18T02:52:00Z,00000200,01000000,0000.66,0000.24,-000.20,-000.08,-000.13,0000.05,0000.41,-000.08,0000.14,18.6,25.1,,00.0,0638.7,30.8
2021-11-18T02:53:00Z,00000200,01000000,-000.34,0000.23,-000.09,-000.33,-000.09,0000.08,-000.14,0000.19,-000.04,18.6,25.2,,00.0,0638.7,30.8
2021-11-18T02:54:00Z,00000200,01000000,0000.06,0000.26,0000.21,0000.51,-000.18,0000.05,0000.15,0000.11,0000.00,18.6,25.2,,00.0,0638.7,30.8
2021-11-18T02:55:00Z,00000200,01000000,-000.85,-000.03,0000.51,0000.06,-000.05,-000.19,0000.11,-000.18,0000.12,18.6,25.2,,00.0,0638.7,30.8
2021-11-18T02:56:00Z,00000200,01000000,-000.22,0000.10,0000.18,0000.20,-000.10,0000.03,-000.27,-000.09,0000.25,18.6,25.2,,00.0,0638.7,30.8
2021-11-18T02:57:00Z,00000200,41000000,,,,,,,0000.53,0000.59,0000.22,18.6,25.2,,00.0,0638.7,30.8
2021-11-18T02:58:00Z,00000200,61000000,,,,,,,0000.02,-000.16,-000.09,18.2,25.3,,00.0,0637.7,30.8
2021-11-18T02:59:00Z,00000200,21000000,,,,,,,-000.12,-000.14,0000.19,18.2,25.4,,00.0,0637.7,30.8
